Regional Weather Roundup
Issued by NWS

Home | Current Version | Previous Version | Graphics & Text | Print | Product List | Glossary Off
Versions: 1 2 3 4 5 6 7 8 9 10 11 12 13 14 15 16 17 18 19 20 21 22 23 24 25 26 27 28 29 30 31 32 33 34 35 36 37 38 39 40 41 42 43 44 45 46 47 48 49 50

000
ASUS43 KMPX 242201
RWRMN
WEATHER ROUNDUP FOR MINNESOTA
NATIONAL WEATHER SERVICE TWIN CITIES/CHANHASSEN MN
500 PM CDT THU MAY 24 2018


NOTE: "FAIR" INDICATES FEW OR NO CLOUDS BELOW 12,000 FEET WITH NO
SIGNIFICANT WEATHER AND/OR OBSTRUCTIONS TO VISIBILITY. N/A MEANS
CURRENT SKY AND/OR WEATHER CONDITIONS ARE NOT AVAILABLE.

MNZ060>063-068>070-242300-
   Twin Cities Metro

CITY           SKY/WX    TMP DP  RH WIND       PRES   REMARKS
TWIN CITIES    FAIR      91  61  36 S16G26    29.88F HX  91
ST PAUL        FAIR      90  61  37 S20G28    29.88F HX  90
CRYSTAL        FAIR      91  60  35 S17G26    29.86F HX  90
BLAINE         PTSUNNY   91  59  33 SW16G26   29.87F HX  90
LAKEVILLE      FAIR      90  61  37 SW7G24    29.90F
EDEN PRAIRIE   FAIR      90  62  39 S16G24    29.86F HX  90
SOUTH ST PAUL  FAIR      91  57  31 S16G23    29.89F
LAKE ELMO      FAIR      88  61  40 S17       29.90F
$$
MNZ001>005-007-008-013>017-022>024-027-028-242300-
   Northwest Minnesota

CITY           SKY/WX    TMP DP  RH WIND       PRES   REMARKS
BEMIDJI        FAIR      85  59  41 S13G21    29.81F
HALLOCK        FAIR      91  52  25 SW20      29.67F
ROSEAU         FAIR      84  66  54 S16       29.74F
WARROAD        FAIR      81  68  65 S9G17     29.76F
THIEF RVR FALL FAIR      87  57  35 S22G28    29.77F
CROOKSTON      FAIR      90  54  29 S23       29.73F
FOSSTON        FAIR      86  52  30 S20G26    29.79F
DETROIT LAKES  FAIR      86  54  32 SW16      29.82F
MOORHEAD       FAIR      91  52  25 S18G25    29.76F
PARK RAPIDS    FAIR      87  60  40 S16G23    29.82F
MAHNOMEN       FAIR      85  60  42 S13G20    29.78F
$$
MNZ006-009>011-018-025>026-242300-
   North Central Minnesota

CITY           SKY/WX    TMP DP  RH WIND       PRES   REMARKS
BAUDETTE       FAIR      79  62  56 S13G24    29.79F
FLAG ISLAND    FAIR      72  64  78 SE3       29.77F
INTL FALLS     PTSUNNY   70  66  87 S6        29.84F
WASKISH          N/A     82  64  54 S8        29.81F
BIG FORK       FAIR      72  66  83 SE6       29.87F
LONGVILLE      FAIR      84  61  45 S13G22    29.84F
GRAND RAPIDS   FAIR      77  70  79 SE7       29.88F
CRANE LAKE     FAIR      72  66  83 CALM      29.88F
ORR              N/A     68  61  77 SW13G20   29.91R
COOK           TSTM      73  64  73 W23G36    29.96R
WALKER         FAIR      80  67  63 E5        29.83F
$$
MNZ012-019>021-037-242300-
   Northeast Minnesota

CITY           SKY/WX    TMP DP  RH WIND       PRES   REMARKS
DULUTH         PTSUNNY   74  66  76 SE7       29.91F
ELY            FAIR      81  61  50 S12G17    29.89F
HIBBING        LGT RAIN  67  64  90 CALM      29.88F
EVELETH        FAIR      77  66  69 S12       29.91S
DULUTH HARBOR  RAIN      50  48  93 NE3       29.91F VSB 1/4
TWO HARBORS      N/A    N/A N/A N/A E5        29.89F
SILVER BAY     FAIR      77  63  61 S6        29.90F
G MARAIS ARPRT FAIR      70  57  64 S9        29.97F
$$
MNZ029>031-032-039>041-046>048-054>057-064-242300-
   West Central Minnesota

CITY           SKY/WX    TMP DP  RH WIND       PRES   REMARKS
FERGUS FALLS   FAIR      88  59  37 SW13      29.75F
WHEATON        SUNNY     90  54  29 S17G23    29.81F
MORRIS         SUNNY     91  55  29 SW13G26   29.81F
ALEXANDRIA     FAIR      92  57  30 SW15      29.85F HX  90
ELBOW LAKE     FAIR      89  60  37 S15G21    29.82F
WADENA         FAIR      86  57  37 S15G24    29.83F
GLENWOOD       FAIR      90  57  33 S13G18    29.85F
APPLETON       SUNNY     91  54  27 SW8G21    29.81F
BENSON         MOSUNNY   91  54  27 SW14      29.82F
ORTONVILLE     SUNNY     90  59  35 SW8       29.81F
MADISON        MOSUNNY   93  57  29 SW17G23   29.81F HX  92
WILLMAR        FAIR      81  63  54 S8G18     29.89F
$$
MNZ033>034-036-042>043-049>051-058-059-242300-
   Central Minnesota

CITY           SKY/WX    TMP DP  RH WIND       PRES   REMARKS
ST CLOUD       FAIR      91  63  39 SW12G26   29.85F HX  92
SAUK CENTRE    FAIR      86  60  40 SW12      29.84F
PAYNESVILLE    FAIR      85  66  53 S12G22    29.85F
PINE RIVER     FAIR      82  63  51 SW8       29.87F
BRAINERD       FAIR      88  63  43 S14G21    29.85F
STAPLES        FAIR      88  52  29 SW13G18   29.83F
LONG PRAIRIE   FAIR      86  63  45 S12G17    29.85F
LITTLE FALLS   FAIR      88  63  42 S9G16     29.85F
LITCHFIELD     FAIR      86  66  51 S7        29.86F
BUFFALO        FAIR      85  59  41 SE12G24   29.87F
MAPLE LAKE     PTSUNNY   87  62  42 SE10G18   29.86F
HUTCHINSON     FAIR      88  66  47 S13G24    29.87F HX  90
$$
MNZ037-044-045-052-053-242300-
   East Central Minnesota

CITY           SKY/WX    TMP DP  RH WIND       PRES   REMARKS
PRINCETON      FAIR      88  64  45 S10G20    29.86F
MORA           FAIR      86  59  39 S12       29.87F
CAMBRIDGE      FAIR      90  66  45 S15       29.87F HX  92
RUSH CITY      FAIR      89  58  35 S14G21    29.87F
MOOSE LAKE     FAIR      79  70  73 CALM      29.86F
HINCKLEY       FAIR      88  63  42 S14G20    29.86F
CLOQUET        FAIR      72  63  73 E5        29.90F
MCGREGOR       FAIR      77  68  73 S7        29.88S
$$
MNZ071>073-080-081-089-090-097-098-242300-
   Southwest Minnesota

CITY           SKY/WX    TMP DP  RH WIND       PRES   REMARKS
MONTEVIDEO     MOSUNNY   90  66  45 S10G18    29.83F HX  92
CANBY          MOSUNNY   91  59  34 SW16G23   29.84F HX  90
MARSHALL       CLOUDY    90  62  39 SW20      29.85S HX  90
REDWOOD FALLS  CLOUDY    78  69  73 N9        29.83F THUNDER
OLIVIA         TSTM      72  66  83 SE3       29.93R
PIPESTONE      CLOUDY    86  63  45 SW21G29   29.90S
WINDOM         MOSUNNY   88  55  33 S17G26    29.88F
WORTHINGTON      N/A     86  58  38 S16       29.92R
JACKSON        CLOUDY    88  57  35 S20       29.93S
TRACY          SUNNY     91  60  35 SW23G29   29.86F HX  90
SLAYTON        MOSUNNY   89  56  32 S24G32    29.90F
$$
MNZ065>067-074>077-082>085-091>093-242300-
   South Central Minnesota

CITY           SKY/WX    TMP DP  RH WIND       PRES   REMARKS
MANKATO        PTSUNNY   89  61  38 S14G21    29.89F
NEW ULM        CLOUDY    90  61  37 SW18G25   29.86F
ST JAMES       CLOUDY    90  59  35 S26       29.88F
FAIRMONT       MOSUNNY   89  61  38 SW21      29.90F
GLENCOE        FAIR      91  60  35 S18G25    29.86F HX  90
FARIBAULT      FAIR      88  61  40 S13G25    29.92F
OWATONNA       FAIR      90  61  37 S22G30    29.93F
WASECA         FAIR      90  61  37 S21G29    29.93F
ALBERT LEA     FAIR      86  54  32 S15       29.94F
$$
MNZ078>079-086>088-094>096-242300-
   Southeast Minnesota

CITY           SKY/WX    TMP DP  RH WIND       PRES   REMARKS
ROCHESTER      FAIR      89  57  33 SW26G38   29.95F
RED WING       FAIR      91  50  24 S12       29.90F
STANTON        FAIR      89  60  38 S13G24    29.90F
DODGE CENTER   FAIR      84  54  34 S21       29.95F
WINONA         FAIR      90  66  45 S6        29.94F HX  92
AUSTIN         FAIR      86  55  35 SW18G28   29.95F
PRESTON        FAIR      86  58  37 S18G25    29.97F
$$
ABBREVIATIONS USED IN REMARKS
   TC - TEMPERATURES IN CELSIUS
  WCI - WIND CHILL INDEX
   HX - HEAT INDEX
  VSB - VISIBILITY
$$



USA.gov is the U.S. government's official web portal to all federal, state and local government web resources and services.